This is the latest recevied weather packets stored in our database for station/object W9WRP. If no packets are shown the sender has not sent any weather packets the latest 10 day(s).
| Time | Temp. | Humidity | Pressure | Rain* | Wind** | Luminosity | Snow |
|---|---|---|---|---|---|---|---|
| 1787508180 | 40.56° C | 19% | 1016.6 hPa | 0 mm | - | 678 W/m² | - |
| 1787507875 | 41.11° C | 18% | 1016.3 hPa | 0 mm | - | 672 W/m² | - |
| 1787507571 | 41.11° C | 18% | 1016.4 hPa | 0 mm | - | 664 W/m² | - |
| 1787507267 | 40.56° C | 18% | 1016.6 hPa | 0 mm | - | 657 W/m² | - |
| 1787506963 | 41.11° C | 18% | 1016.3 hPa | 0 mm | - | 648 W/m² | - |
| 1787506659 | 40.56° C | 19% | 1016.4 hPa | 0 mm | - | 640 W/m² | - |
| 1787506354 | 40.56° C | 19% | 1016.3 hPa | 0 mm | - | 632 W/m² | - |
| 1787506049 | 40.56° C | 19% | 1016.4 hPa | 0 mm | - | 619 W/m² | - |
| 1787505744 | 40° C | 19% | 1016.2 hPa | 0 mm | - | 611 W/m² | - |
| 1787505439 | 40° C | 19% | 1016.4 hPa | 0 mm | - | 600 W/m² | - |
| 1787505135 | 40° C | 20% | 1016.8 hPa | 0 mm | - | 590 W/m² | - |
| 1787504829 | 39.44° C | 20% | 1016.8 hPa | 0 mm | - | 218 W/m² | - |
| 1787504526 | 39.44° C | 20% | 1016.6 hPa | 0 mm | - | 454 W/m² | - |
| 1787504221 | 39.44° C | 20% | 1016.7 hPa | 0 mm | - | 173 W/m² | - |
| 1787503916 | 39.44° C | 20% | 1016.7 hPa | 0 mm | - | 113 W/m² | - |
| 1787503612 | 39.44° C | 20% | 1016.6 hPa | 0 mm | - | 125 W/m² | - |
| 1787503309 | 39.44° C | 20% | 1016.5 hPa | 0 mm | - | 93 W/m² | - |
| 1787503009 | 39.44° C | 20% | 1016.5 hPa | 0 mm | - | 138 W/m² | - |
| 1787502704 | 39.44° C | 20% | 1016.4 hPa | 0 mm | - | 109 W/m² | - |
| 1787502404 | 39.44° C | 20% | 1016.4 hPa | 0 mm | - | 68 W/m² | - |
| 1787502103 | 39.44° C | 20% | 1016.2 hPa | 0 mm | - | 192 W/m² | - |
| 1787501799 | 39.44° C | 20% | 1016.4 hPa | 0 mm | - | 181 W/m² | - |
| 1787501496 | 38.89° C | 20% | 1016.2 hPa | 0 mm | - | 320 W/m² | - |
| 1787501191 | 38.89° C | 20% | 1016.5 hPa | 0 mm | - | 212 W/m² | - |
| 1787500888 | 38.89° C | 20% | 1016.4 hPa | 0 mm | - | 90 W/m² | - |
* Rain latest hour (hover to see other rain measurements)
** Current wind speed in m/s (hover to see current wind gust speed)